This is the latest recevied weather packets stored in our database for station/object SR1WXW. If no packets are shown the sender has not sent any weather packets the latest 10 day(s).
| Time | Temp. | Humidity | Pressure | Rain* | Wind** | Luminosity | Snow |
|---|---|---|---|---|---|---|---|
| 1777708092 | 22.78° C | 37% | 1018.6 hPa | 0 mm | - | - | - |
| 1777707792 | 22.22° C | 39% | 1018.5 hPa | 0 mm | - | - | - |
| 1777707492 | 21.67° C | 40% | 1018.5 hPa | 0 mm | - | - | - |
| 1777707192 | 21.67° C | 41% | 1018.6 hPa | 0 mm | - | - | - |
| 1777706892 | 21.11° C | 41% | 1018.5 hPa | 0 mm | - | - | - |
| 1777706592 | 20.56° C | 42% | 1018.5 hPa | 0 mm | - | - | - |
| 1777706292 | 20° C | 43% | 1018.7 hPa | 0 mm | - | - | - |
| 1777705993 | 19.44° C | 44% | 1018.7 hPa | 0 mm | - | - | - |
| 1777705692 | 18.89° C | 45% | 1018.7 hPa | 0 mm | - | - | - |
| 1777705392 | 18.33° C | 50% | 1018.6 hPa | 0 mm | - | - | - |
| 1777705092 | 17.22° C | 53% | 1018.6 hPa | 0 mm | - | - | - |
| 1777704793 | 15.56° C | 54% | 1018.8 hPa | 0 mm | - | - | - |
| 1777704492 | 15° C | 57% | 1018.7 hPa | 0 mm | - | - | - |
| 1777704193 | 13.89° C | 58% | 1018.8 hPa | 0 mm | - | - | - |
| 1777703892 | 13.33° C | 60% | 1018.9 hPa | 0 mm | - | - | - |
| 1777703593 | 12.78° C | 60% | 1018.9 hPa | 0 mm | - | - | - |
| 1777703292 | 12.78° C | 61% | 1018.8 hPa | 0 mm | - | - | - |
| 1777702992 | 12.22° C | 61% | 1018.9 hPa | 0 mm | - | - | - |
| 1777702692 | 11.67° C | 62% | 1018.9 hPa | 0 mm | - | - | - |
| 1777702392 | 11.67° C | 63% | 1019 hPa | 0 mm | - | - | - |
| 1777702092 | 11.67° C | 64% | 1018.9 hPa | 0 mm | - | - | - |
| 1777701793 | 11.11° C | 66% | 1019 hPa | 0 mm | - | - | - |
| 1777701493 | 10.56° C | 67% | 1019.1 hPa | 0 mm | - | - | - |
| 1777701192 | 10.56° C | 69% | 1019 hPa | 0 mm | - | - | - |
| 1777700893 | 10° C | 69% | 1019.1 hPa | 0 mm | - | - | - |
* Rain latest hour (hover to see other rain measurements)
** Current wind speed in m/s (hover to see current wind gust speed)